TimeCDT,TemperatureF,Dew PointF,Humidity,Sea Level PressureIn,VisibilityMPH,Wind Direction,Wind SpeedMPH,Gust SpeedMPH,PrecipitationIn,Events,Conditions,WindDirDegrees,DateUTC
12:15 AM,48.2,44.6,87,30.34,10.0,East,3.5,-,N/A,,Clear,90,2013-09-17 05:15:00
12:35 AM,48.2,44.6,87,30.35,10.0,Calm,Calm,-,N/A,,Clear,0,2013-09-17 05:35:00
12:55 AM,46.4,44.6,93,30.35,10.0,Calm,Calm,-,N/A,,Clear,0,2013-09-17 05:55:00
1:15 AM,46.4,44.6,93,30.35,10.0,Calm,Calm,-,N/A,,Clear,0,2013-09-17 06:15:00
1:35 AM,48.2,42.8,82,30.35,10.0,East,3.5,-,N/A,,Clear,100,2013-09-17 06:35:00
1:55 AM,48.2,42.8,82,30.35,10.0,Calm,Calm,-,N/A,,Clear,0,2013-09-17 06:55:00
2:15 AM,48.2,42.8,82,30.35,10.0,ESE,3.5,-,N/A,,Clear,110,2013-09-17 07:15:00
2:35 AM,48.2,42.8,82,30.35,10.0,ESE,4.6,-,N/A,,Clear,110,2013-09-17 07:35:00
2:55 AM,48.2,42.8,82,30.35,10.0,ESE,4.6,-,N/A,,Clear,110,2013-09-17 07:55:00
3:15 AM,48.2,42.8,82,30.35,10.0,ESE,4.6,-,N/A,,Clear,110,2013-09-17 08:15:00
3:35 AM,48.2,42.8,82,30.35,10.0,East,3.5,-,N/A,,Clear,100,2013-09-17 08:35:00
3:55 AM,48.2,42.8,82,30.35,10.0,ESE,3.5,-,N/A,,Clear,110,2013-09-17 08:55:00
4:15 AM,48.2,42.8,82,30.35,10.0,East,4.6,-,N/A,,Clear,100,2013-09-17 09:15:00
4:35 AM,46.4,42.8,87,30.35,10.0,ESE,4.6,-,N/A,,Clear,110,2013-09-17 09:35:00
4:55 AM,46.4,42.8,87,30.35,10.0,ESE,3.5,-,N/A,,Clear,110,2013-09-17 09:55:00
5:15 AM,46.4,42.8,87,30.35,10.0,SE,3.5,-,N/A,,Clear,130,2013-09-17 10:15:00
5:35 AM,46.4,42.8,87,30.35,10.0,ESE,4.6,-,N/A,,Clear,110,2013-09-17 10:35:00
5:55 AM,46.4,42.8,87,30.35,10.0,ESE,4.6,-,N/A,,Clear,120,2013-09-17 10:55:00
6:15 AM,46.4,42.8,87,30.35,10.0,ESE,4.6,-,N/A,,Clear,120,2013-09-17 11:15:00
6:35 AM,46.4,42.8,87,30.35,10.0,ESE,3.5,-,N/A,,Clear,120,2013-09-17 11:35:00
6:55 AM,46.4,42.8,87,30.36,10.0,SE,3.5,-,N/A,,Clear,130,2013-09-17 11:55:00
7:15 AM,46.4,42.8,87,30.36,10.0,Calm,Calm,-,N/A,,Clear,0,2013-09-17 12:15:00
7:35 AM,48.2,44.6,87,30.36,10.0,ESE,4.6,-,N/A,,Clear,120,2013-09-17 12:35:00
7:55 AM,50.0,44.6,82,30.36,10.0,ESE,6.9,-,N/A,,Clear,110,2013-09-17 12:55:00
8:15 AM,51.8,44.6,76,30.36,10.0,ESE,5.8,-,N/A,,Clear,110,2013-09-17 13:15:00
8:35 AM,51.8,44.6,76,30.36,10.0,SE,3.5,-,N/A,,Clear,130,2013-09-17 13:35:00
8:55 AM,53.6,44.6,72,30.36,10.0,SE,5.8,-,N/A,,Clear,130,2013-09-17 13:55:00
9:15 AM,55.4,46.4,72,30.36,10.0,SE,4.6,-,N/A,,Clear,130,2013-09-17 14:15:00
9:35 AM,57.2,44.6,63,30.35,10.0,SE,6.9,-,N/A,,Clear,130,2013-09-17 14:35:00
9:55 AM,59.0,44.6,59,30.35,10.0,SE,4.6,-,N/A,,Clear,130,2013-09-17 14:55:00
10:15 AM,60.8,46.4,59,30.35,10.0,SE,4.6,-,N/A,,Clear,140,2013-09-17 15:15:00
10:35 AM,60.8,46.4,59,30.35,10.0,SSE,5.8,-,N/A,,Clear,150,2013-09-17 15:35:00
10:55 AM,62.6,46.4,55,30.34,10.0,ESE,5.8,-,N/A,,Clear,110,2013-09-17 15:55:00
11:15 AM,62.6,46.4,55,30.34,10.0,SE,5.8,-,N/A,,Clear,130,2013-09-17 16:15:00
11:35 AM,64.4,46.4,52,30.33,10.0,SE,4.6,-,N/A,,Clear,140,2013-09-17 16:35:00
11:55 AM,64.4,46.4,52,30.32,10.0,Calm,Calm,-,N/A,,Clear,0,2013-09-17 16:55:00
12:15 PM,64.4,46.4,52,30.31,10.0,SE,3.5,-,N/A,,Clear,130,2013-09-17 17:15:00
12:35 PM,64.4,46.4,52,30.30,10.0,SSE,5.8,-,N/A,,Clear,150,2013-09-17 17:35:00
12:55 PM,68.0,46.4,46,30.30,10.0,SE,3.5,-,N/A,,Clear,140,2013-09-17 17:55:00
1:15 PM,68.0,46.4,46,30.29,10.0,SSE,4.6,-,N/A,,Clear,160,2013-09-17 18:15:00
1:35 PM,68.0,46.4,46,30.28,10.0,SSE,5.8,-,N/A,,Clear,160,2013-09-17 18:35:00
1:55 PM,68.0,46.4,46,30.27,10.0,SSW,4.6,-,N/A,,Clear,200,2013-09-17 18:55:00
2:15 PM,68.0,46.4,46,30.26,10.0,SSE,3.5,-,N/A,,Clear,150,2013-09-17 19:15:00
2:35 PM,68.0,46.4,46,30.25,10.0,ESE,3.5,-,N/A,,Clear,110,2013-09-17 19:35:00
2:55 PM,68.0,46.4,46,30.25,10.0,SE,4.6,-,N/A,,Clear,130,2013-09-17 19:55:00
3:15 PM,68.0,46.4,46,30.24,10.0,SSE,5.8,-,N/A,,Clear,160,2013-09-17 20:15:00
3:35 PM,68.0,46.4,46,30.23,10.0,SE,3.5,-,N/A,,Clear,130,2013-09-17 20:35:00
3:55 PM,69.8,46.4,43,30.22,10.0,SSE,5.8,-,N/A,,Clear,150,2013-09-17 20:55:00
4:15 PM,69.8,44.6,40,30.22,10.0,SE,3.5,-,N/A,,Clear,130,2013-09-17 21:15:00
4:35 PM,68.0,46.4,46,30.22,10.0,SE,3.5,-,N/A,,Clear,140,2013-09-17 21:35:00
4:55 PM,68.0,48.2,49,30.21,10.0,Calm,Calm,-,N/A,,Clear,0,2013-09-17 21:55:00
5:15 PM,66.2,48.2,52,30.21,10.0,Calm,Calm,-,N/A,,Clear,0,2013-09-17 22:15:00
5:35 PM,64.4,48.2,56,30.20,10.0,Calm,Calm,-,N/A,,Clear,0,2013-09-17 22:35:00
5:55 PM,64.4,50.0,59,30.20,10.0,Calm,Calm,-,N/A,,Clear,0,2013-09-17 22:55:00
6:15 PM,60.8,51.8,72,30.20,10.0,Calm,Calm,-,N/A,,Clear,0,2013-09-17 23:15:00
6:35 PM,60.8,50.0,68,30.19,10.0,Calm,Calm,-,N/A,,Clear,0,2013-09-17 23:35:00
6:55 PM,59.0,51.8,77,30.19,10.0,Calm,Calm,-,N/A,,Clear,0,2013-09-17 23:55:00
7:15 PM,59.0,51.8,77,30.19,10.0,Calm,Calm,-,N/A,,Clear,0,2013-09-18 00:15:00
7:35 PM,59.0,51.8,77,30.19,10.0,Calm,Calm,-,N/A,,Clear,0,2013-09-18 00:35:00
7:55 PM,59.0,50.0,72,30.19,10.0,Calm,Calm,-,N/A,,Clear,0,2013-09-18 00:55:00
8:15 PM,59.0,50.0,72,30.19,10.0,Calm,Calm,-,N/A,,Clear,0,2013-09-18 01:15:00
8:35 PM,59.0,50.0,72,30.19,10.0,Calm,Calm,-,N/A,,Clear,0,2013-09-18 01:35:00
8:55 PM,55.4,50.0,82,30.19,10.0,Calm,Calm,-,N/A,,Clear,0,2013-09-18 01:55:00
9:15 PM,55.4,50.0,82,30.18,10.0,Calm,Calm,-,N/A,,Clear,0,2013-09-18 02:15:00
9:35 PM,55.4,50.0,82,30.18,10.0,Calm,Calm,-,N/A,,Clear,0,2013-09-18 02:35:00
9:55 PM,55.4,48.2,77,30.18,10.0,Calm,Calm,-,N/A,,Clear,0,2013-09-18 02:55:00
10:15 PM,57.2,46.4,67,30.18,10.0,Calm,Calm,-,N/A,,Clear,0,2013-09-18 03:15:00
10:35 PM,59.0,46.4,63,30.17,10.0,ESE,3.5,-,N/A,,Clear,120,2013-09-18 03:35:00
10:55 PM,59.0,44.6,59,30.17,10.0,Calm,Calm,-,N/A,,Clear,0,2013-09-18 03:55:00
11:15 PM,59.0,44.6,59,30.17,10.0,Calm,Calm,-,N/A,,Clear,0,2013-09-18 04:15:00
11:35 PM,59.0,44.6,59,30.15,10.0,Calm,Calm,-,N/A,,Clear,0,2013-09-18 04:35:00
11:55 PM,59.0,42.8,55,30.15,10.0,Calm,Calm,-,N/A,,Clear,0,2013-09-18 04:55:00